Location: Marsån
(66.4167°N, 22.2833°E)
Time: 10:18:54
(UTC+00:00)

Cosmos 2016 Rocket - Pass Details

Date: 24 February 2024
Orbit: 945 x 1001 km, 83.0° (Epoch: 15 April)

Event Time Altitude Azimuth Distance (km) Brightness Sun altitude
Rises 16:39:29 0° 191° (SSW) 3,717 7.3 -8.2°
Reaches altitude 10° 16:42:00 10° 191° (SSW) 2,773 6.6 -8.5°
Maximum altitude 16:48:24 85° 106° (ESE) 1,016 4.1 -9.1°
Drops below altitude 10° 16:54:50 10° 18° (NNE) 2,783 6.2 -9.7°
Sets 16:57:21 0° 18° (NNE) 3,731 6.9 -10.0°
